S-Net D (43186 NORAD) Tracking and Keplerian Element Data

This shows tracking and keplerian element data for the satellite.

Feedback or suggestion? Click here.




ElementValue
Catalog43186
NameS-Net D
Epoch Orbit34707
Epoch Day159.67572017
Epoch Year2024
RAAN61.6826
Inclination97.5929
Eccentricity0.0011442
Argument of Perigee45.4071
Mean Anonmoly314.8087
Mean Motion15.04482343
Decay Rate8.13E-05
L11 43186U 18014G 24159.67572017 .00008130 00000-0 58415-3 0 9990
L22 43186 97.5929 61.6826 0011442 45.4071 314.8087 15.04482343347073



Live tracking and technical data element details for S-Net D (NORAD 43186). S-Net D can be tracked NOW for your location showing map with azimuth and elevation plus other details from your city location.







IsCatalogInMostPopularTable: catalog: 43186, numindb: 703
Update: records affected: 1



GetName: 43186 S-Net D

Hit Count: updated at: Fri, 14 Jun 2024 18:03:55 GMT